Tyler, TX

2:20 AM CST on November 21, 2019 (GMT -0600)
Tyler Pounds

Weather History for KTYR - September, 2019

Change the Weather History Date:

Sunday, September 15, 2019

  Actual Average Record
Temperature  
Mean Temperature 86 °F 76 °F  
Max Temperature 99 °F 87 °F 105 °F (1939)
Min Temperature 73 °F 66 °F 48 °F (1902)
Degree Days  
Heating Degree Days 0 0  
Month to date heating degree days 0 0  
Since 1 July heating degree days 0 0  
Cooling Degree Days 21 11  
Month to date cooling degree days 313 204  
Year to date cooling degree days 2463 2126  
Growing Degree Days 36 (Base 50)    
Moisture  
Dew Point 63 °F    
Average Humidity 49    
Maximum Humidity 81    
Minimum Humidity 27    
Precipitation  
Precipitation 0.00 in 0.11 in 1.78 in (1998)
Month to date precipitation T 1.78  
Year to date precipitation 36.86 31.04  
Snow  
Snow 0.00 in - - ()
Month to date snowfall 0.0  
Since 1 July snowfall 0.0  
Since 1 September snowfall 0.0  
Snow Depth 0.00 in    
Sea Level Pressure  
Sea Level Pressure 30.03 in    
Wind  
Wind Speed 3 mph ()    
Max Wind Speed 15 mph    
Max Gust Speed 19 mph    
Visibility 10.0 miles    
Events      
T = Trace of Precipitation, MM = Missing Value Source: Averaged Metar Reports

Daily Weather History Graph

Daily Weather History Graph

Search for Another Location

Airport or City:

Astronomy

Sep. 15, 2019 Rise Set
Actual Time 7:05 AM CDT 7:27 PM CDT
Civil Twilight 6:40 AM CDT 7:52 PM CDT
Nautical Twilight 6:11 AM CDT 8:21 PM CDT
Astronomical Twilight 5:42 AM CDT 8:50 PM CDT
Moon 8:39 PM CDT (9/15) 8:14 AM CDT (9/15)
Length of Visible Light 13h 11m
Length of Day
12h 22m
Full, 98% of the Moon is Illuminated
Sep 15
Full
Sep 21
Last Quarter
Sep 28
New
Oct 5
First Quarter
Oct 13
Full

Hourly Weather History & Observations

Time (CDT) Temp. Heat Index Dew Point Humidity Pressure Visibility Wind Dir Wind Speed Gust Speed Precip Events Conditions
12:53 AM 82.0 °F 83.4 °F 64.0 °F 54% 30.06 in 10.0 mi Calm Calm - N/A   Clear
1:53 AM 79.0 °F - 64.9 °F 62% 30.06 in 10.0 mi SSW 5.8 mph - N/A   Clear
2:53 AM 79.0 °F - 64.9 °F 62% 30.06 in 10.0 mi Calm Calm - N/A   Clear
3:53 AM 75.9 °F - 66.0 °F 71% 30.05 in 10.0 mi Calm Calm - N/A   Clear
4:53 AM 73.0 °F - 66.9 °F 81% 30.05 in 10.0 mi NNE 3.5 mph - N/A   Clear
5:53 AM 73.9 °F - 66.9 °F 79% 30.06 in 10.0 mi Calm Calm - N/A   Clear
6:53 AM 73.0 °F - 66.9 °F 81% 30.06 in 10.0 mi Calm Calm - N/A   Clear
7:53 AM 75.0 °F - 66.9 °F 76% 30.06 in 10.0 mi Calm Calm - N/A   Clear
8:53 AM 82.0 °F 83.8 °F 64.9 °F 56% 30.07 in 10.0 mi SSE 3.5 mph - N/A   Clear
9:53 AM 86.0 °F 87.6 °F 64.9 °F 49% 30.07 in 10.0 mi Calm Calm - N/A   Clear
10:53 AM 91.0 °F 90.9 °F 61.0 °F 36% 30.07 in 10.0 mi SE 6.9 mph - N/A   Clear
11:53 AM 93.9 °F 93.6 °F 60.1 °F 32% 30.07 in 10.0 mi SSE 11.5 mph - N/A   Clear
12:53 PM 93.0 °F 93.0 °F 61.0 °F 34% 30.05 in 10.0 mi South 8.1 mph 17.3 mph N/A   Partly Cloudy
1:53 PM 96.1 °F 96.0 °F 60.1 °F 30% 30.02 in 10.0 mi Variable 4.6 mph - N/A   Scattered Clouds
2:53 PM 98.1 °F 97.7 °F 59.0 °F 27% 30.00 in 10.0 mi East 11.5 mph - N/A   Partly Cloudy
3:53 PM 98.1 °F 98.1 °F 60.1 °F 28% 29.98 in 10.0 mi NNE 11.5 mph - N/A   Partly Cloudy
4:53 PM 98.1 °F 98.1 °F 60.1 °F 28% 29.97 in 10.0 mi ENE 6.9 mph - N/A   Mostly Cloudy
5:53 PM 95.0 °F 94.8 °F 60.1 °F 31% 29.97 in 10.0 mi East 12.7 mph - N/A   Scattered Clouds
6:53 PM 93.9 °F 94.0 °F 61.0 °F 33% 29.97 in 10.0 mi East 5.8 mph - N/A   Clear
7:53 PM 91.0 °F 91.5 °F 62.1 °F 38% 29.97 in 10.0 mi East 4.6 mph - N/A   Clear
8:53 PM 87.1 °F 88.3 °F 64.0 °F 46% 29.98 in 10.0 mi ENE 4.6 mph - N/A   Clear
9:53 PM 84.9 °F 86.1 °F 64.0 °F 49% 30.00 in 10.0 mi East 3.5 mph - N/A   Partly Cloudy
10:53 PM 84.9 °F 86.1 °F 64.0 °F 49% 30.00 in 10.0 mi East 4.6 mph - N/A   Clear
11:53 PM 84.9 °F 86.1 °F 64.0 °F 49% 30.00 in 10.0 mi East 5.8 mph - N/A   Clear